Change the Weather History Date:

Sunday, March 17, 2013

  Actual Average Record
Temperature  
Mean Temperature 34 °F -  
Max Temperature 37 °F 51 °F 71 °F (2012)
Min Temperature 30 °F 30 °F 19 °F (1992)
Degree Days  
Heating Degree Days 32    
Moisture  
Dew Point 24 °F    
Average Humidity 71    
Maximum Humidity 89    
Minimum Humidity 48    
Precipitation  
Precipitation 0.00 in - - ()
Sea Level Pressure  
Sea Level Pressure 30.11 in    
Wind  
Wind Speed 4 mph (NNW)    
Max Wind Speed 13 mph    
Max Gust Speed -    
Visibility 7 miles    
Events      
Averages and records for this station are not official NWS values.
T = Trace of Precipitation, MM = Missing Value Source: NWS Daily Summary

Daily Weather History Graph

Daily Weather History Graph

Search for Another Location

Airport or City:

Trip Planner

Search our weather history database for the weather conditions in past years. The results will help you decide how hot, cold, wet, or windy it might be!

Date:

Astronomy

Mar. 17, 2013 Rise Set
Actual Time 7:13 AM EDT 7:14 PM EDT
Civil Twilight 6:46 AM EDT 7:41 PM EDT
Nautical Twilight 6:14 AM EDT 8:13 PM EDT
Astronomical Twilight 5:42 AM EDT 8:45 PM EDT
Moon 10:23 AM EDT (3/17) 12:20 AM EDT (3/17)
Length of Visible Light 12h 55m
Length of Day
12h 01m
Waxing Crescent, 31% of the Moon is Illuminated
Mar 17
Waxing Crescent
Mar 19
First Quarter
Mar 27
Full
Apr 3
Last Quarter
Apr 10
New

Hourly Weather History & Observations

Time (EDT) Temp. Windchill Dew Point Humidity Pressure Visibility Wind Dir Wind Speed Gust Speed Precip Events Conditions
12:53 AM 33.1 °F 30.0 °F 28.9 °F 85% 29.94 in 4.0 mi WNW 3.5 mph - N/A   Overcast
1:53 AM 33.1 °F 27.7 °F 30.0 °F 89% 29.95 in 3.0 mi WNW 5.8 mph - N/A   Overcast
2:53 AM 33.1 °F 27.7 °F 28.9 °F 85% 29.98 in 4.0 mi NNW 5.8 mph - N/A   Overcast
3:21 AM 32.0 °F 27.5 °F 28.4 °F 87% 29.97 in 5.0 mi NNW 4.6 mph - N/A   Partly Cloudy
3:53 AM 32.0 °F - 28.0 °F 85% 29.99 in 5.0 mi Calm Calm - N/A   Overcast
4:00 AM 32.0 °F - 26.6 °F 80% 29.98 in 6.0 mi Calm Calm - N/A   Haze
4:35 AM 32.0 °F - 28.4 °F 87% 29.98 in 5.0 mi Calm Calm - N/A   Overcast
4:53 AM 32.0 °F - 28.0 °F 85% 29.99 in 4.0 mi Calm Calm - N/A   Overcast
5:53 AM 32.0 °F - 28.0 °F 85% 30.01 in 4.0 mi Calm Calm - N/A   Overcast
6:53 AM 32.0 °F - 28.0 °F 85% 30.06 in 4.0 mi Calm Calm - N/A   Overcast
7:39 AM 32.0 °F - 28.4 °F 87% 30.07 in 4.0 mi Calm Calm - N/A   Overcast
7:53 AM 32.0 °F - 28.9 °F 88% 30.10 in 3.0 mi Calm Calm - N/A   Overcast
8:49 AM 32.0 °F 24.2 °F 26.6 °F 80% 30.12 in 6.0 mi North 9.2 mph - N/A   Haze
8:53 AM 32.0 °F 23.6 °F 26.1 °F 79% 30.14 in 7.0 mi North 10.4 mph - N/A   Overcast
9:53 AM 32.0 °F 22.5 °F 21.9 °F 66% 30.14 in 10.0 mi North 12.7 mph - N/A   Overcast
10:53 AM 32.0 °F 24.8 °F 21.0 °F 64% 30.16 in 10.0 mi North 8.1 mph - N/A   Overcast
11:53 AM 33.1 °F 26.9 °F 21.9 °F 64% 30.18 in 10.0 mi NW 6.9 mph - N/A   Overcast
12:53 PM 35.1 °F 27.9 °F 21.0 °F 57% 30.18 in 10.0 mi NW 9.2 mph - N/A   Overcast
1:53 PM 37.0 °F 29.3 °F 21.9 °F 54% 30.17 in 10.0 mi NNW 11.5 mph - N/A   Mostly Cloudy
2:53 PM 37.9 °F 32.7 °F 21.0 °F 51% 30.16 in 10.0 mi North 6.9 mph - N/A   Mostly Cloudy
3:53 PM 37.0 °F 31.6 °F 19.0 °F 48% 30.17 in 10.0 mi NNW 6.9 mph - N/A   Partly Cloudy
4:53 PM 37.0 °F 31.0 °F 19.0 °F 48% 30.19 in 10.0 mi North 8.1 mph - N/A   Partly Cloudy
5:53 PM 36.0 °F 29.6 °F 18.0 °F 48% 30.20 in 10.0 mi North 8.1 mph - N/A   Clear
6:53 PM 36.0 °F 31.1 °F 19.0 °F 50% 30.22 in 10.0 mi NNE 5.8 mph - N/A   Clear
8:53 PM 33.1 °F - 21.0 °F 61% 30.26 in 10.0 mi Calm Calm - N/A   Clear
9:53 PM 32.0 °F 27.5 °F 21.0 °F 64% 30.28 in 10.0 mi NNE 4.6 mph - N/A   Clear
10:53 PM 30.9 °F 27.5 °F 19.9 °F 64% 30.28 in 10.0 mi NE 3.5 mph - N/A   Clear
11:53 PM 30.9 °F - 19.9 °F 64% 30.29 in 10.0 mi Calm Calm - N/A   Clear